Location: Krasnoyarskiy Pitomnik
(51.1333°N, 71.6167°E)
Time: 15:29:47
(UTC+00:00)

Cosmos 1340 - Pass Details

Date: 22 October 2021
Orbit: 497 x 503 km, 81.2° (Epoch: 26 November)

Event Time Altitude Azimuth Distance (km) Brightness Sun altitude
Exits shadow 23:31:37 24° 352° (N) 1,078 4.3 -22.3°
Drops below altitude 10° 23:33:20 10° 3° (N) 1,727 5.5 -22.1°
Sets 23:35:31 0° 9° (N) 2,617 6.5 -21.7°
